Location: Sungai Bunut
(2.6333°N, 113.7333°E)
Time: 14:29:35
(UTC+00:00)

Transit 2A - All Passes

Search period start: 03 December 2023 00:00
Search period end: 13 December 2023 00:00
Orbit: 600 x 953 km, 66.7° (Epoch: 02 December)

Date Brightness Start Highest point End Pass type
(mag) Time Alt. Az. Time Alt. Az. Time Alt. Az.
03 Dec - 05:50:41 10° SSE 05:54:40 18° ESE 05:58:25 10° ENE daylight
03 Dec - 07:32:24 10° SW 07:37:38 34° WNW 07:42:28 10° N daylight
03 Dec - 18:21:26 10° N 18:25:55 54° ENE 18:30:52 10° SSE visible
04 Dec - 05:18:49 10° ESE 05:19:40 10° ESE 05:20:31 10° ESE daylight
04 Dec - 06:57:00 10° SSW 07:02:48 57° WNW 07:08:04 10° N daylight
04 Dec - 17:47:04 10° N 17:51:05 30° ENE 17:55:26 10° SE night (unlit)
04 Dec - 19:31:32 10° W 19:34:00 14° WSW 19:36:36 10° SW visible
05 Dec - 06:21:57 10° SSW 06:27:55 85° ESE 06:33:19 10° NNE daylight
05 Dec - 17:13:18 10° NNE 17:16:15 17° ENE 17:19:21 10° ESE night (unlit)
05 Dec - 18:55:11 10° WNW 18:59:02 25° WSW 19:03:11 10° SSW night (unlit)
06 Dec - 05:47:15 10° S 05:53:00 51° ESE 05:58:15 10° NE daylight
06 Dec - 07:34:12 10° W 07:35:45 11° WNW 07:37:18 10° NW daylight
06 Dec - 18:19:38 10° NW 18:24:05 44° WSW 18:28:58 10° S night (unlit)
07 Dec - 05:12:56 10° S 05:18:04 30° ESE 05:22:48 10° NE daylight
07 Dec - 06:56:50 10° WSW 07:00:54 20° WNW 07:04:44 10° NNW daylight
07 Dec - 17:44:31 10° NNW 17:49:10 81° WSW 17:54:20 10° SSE night (unlit)
08 Dec - 04:39:11 10° SSE 04:43:05 18° ESE 04:46:47 10° ENE daylight
08 Dec - 06:20:53 10° SW 06:26:04 33° WNW 06:30:49 10° N daylight
08 Dec - 17:09:46 10° N 17:14:18 55° ENE 17:19:18 10° SSE night (unlit)
09 Dec - 04:07:28 10° ESE 04:08:05 10° ESE 04:08:41 10° ESE daylight
09 Dec - 05:45:27 10° SSW 05:51:12 56° WNW 05:56:25 10° N daylight
09 Dec - 16:35:23 10° N 16:39:27 30° ENE 16:43:52 10° SE night (unlit)
09 Dec - 18:19:50 10° W 18:22:23 14° WSW 18:25:04 10° SW night (unlit)
10 Dec - 05:10:24 10° SSW 05:16:19 86° ESE 05:21:39 10° NNE daylight
10 Dec - 16:01:34 10° NNE 16:04:37 17° ENE 16:07:48 10° ESE night (unlit)
10 Dec - 17:43:29 10° WNW 17:47:23 25° WSW 17:51:36 10° SSW night (unlit)
11 Dec - 04:35:42 10° S 04:41:24 50° ESE 04:46:34 10° NE daylight
11 Dec - 06:22:48 10° W 06:24:08 11° WNW 06:25:27 10° WNW daylight
11 Dec - 17:07:56 10° NW 17:12:26 44° WSW 17:17:23 10° S night (unlit)
12 Dec - 04:01:22 10° S 04:06:26 30° ESE 04:11:07 10° NE daylight
12 Dec - 05:45:18 10° WSW 05:49:16 19° WNW 05:53:01 10° NNW daylight
12 Dec - 16:32:49 10° NNW 16:37:30 81° WSW 16:42:43 10° SSE night (unlit)
